owner,sensor,date,latitude,longitude,air_temperature,qcFlag 
LUMCON,ioos:station:LUMCON:103:1,2009-08-01T01:00:00Z,30.1889,-90.1683,28.2,11111222 
LUMCON,ioos:station:LUMCON:103:1,2009-08-01T02:00:00Z,30.1889,-90.1683,28.7,11111222 
LUMCON,ioos:station:LUMCON:103:1,2009-08-01T03:00:00Z,30.1889,-90.1683,28.4,11111222 
LUMCON,ioos:station:LUMCON:103:1,2009-08-01T04:00:00Z,30.1889,-90.1683,29.2,11111222 
LUMCON,ioos:station:LUMCON:103:1,2009-08-01T05:00:00Z,30.1889,-90.1683,28.9,11111222 
LUMCON,ioos:station:LUMCON:103:1,2009-08-01T06:00:00Z,30.1889,-90.1683,29.1,11111222 
LUMCON,ioos:station:LUMCON:103:1,2009-08-01T07:00:00Z,30.1889,-90.1683,29.0,11111222 
LUMCON,ioos:station:LUMCON:103:1,2009-08-03T17:00:00Z,30.1889,-90.1683,30.8,11111222 
LUMCON,ioos:station:LUMCON:103:1,2009-08-03T18:00:00Z,30.1889,-90.1683,31.0,11111222 
LUMCON,ioos:station:LUMCON:103:1,2009-08-03T19:00:00Z,30.1889,-90.1683,31.3,11111222 
LUMCON,ioos:station:LUMCON:103:1,2009-08-03T20:00:00Z,30.1889,-90.1683,31.0,11111222 
LUMCON,ioos:station:LUMCON:103:1,2009-08-03T21:00:00Z,30.1889,-90.1683,31.2,11111222 
LUMCON,ioos:station:LUMCON:103:1,2009-08-03T22:00:00Z,30.1889,-90.1683,31.5,11111222 
LUMCON,ioos:station:LUMCON:103:1,2009-08-03T23:00:00Z,30.1889,-90.1683,31.6,11111222 
LUMCON,ioos:station:LUMCON:103:1,2009-08-04T00:00:00Z,30.1889,-90.1683,31.1,11111222 
LUMCON,ioos:station:LUMCON:103:1,2009-08-04T01:00:00Z,30.1889,-90.1683,30.0,11111222 
LUMCON,ioos:station:LUMCON:103:1,2009-08-04T02:00:00Z,30.1889,-90.1683,29.8,11111222 
LUMCON,ioos:station:LUMCON:103:1,2009-08-04T03:00:00Z,30.1889,-90.1683,29.6,11111222 
LUMCON,ioos:station:LUMCON:103:1,2009-08-04T04:00:00Z,30.1889,-90.1683,29.0,11111222 
LUMCON,ioos:station:LUMCON:103:1,2009-08-04T05:00:00Z,30.1889,-90.1683,28.7,11111222 
LUMCON,ioos:station:LUMCON:103:1,2009-08-04T06:00:00Z,30.1889,-90.1683,28.0,11111222 
LUMCON,ioos:station:LUMCON:103:1,2009-08-04T07:00:00Z,30.1889,-90.1683,27.9,11111222 
LUMCON,ioos:station:LUMCON:103:1,2009-08-04T08:00:00Z,30.1889,-90.1683,28.0,11111222 
LUMCON,ioos:station:LUMCON:103:1,2009-08-04T09:00:00Z,30.1889,-90.1683,27.5,11111222 
LUMCON,ioos:station:LUMCON:103:1,2009-08-04T10:00:00Z,30.1889,-90.1683,27.3,11111222 
LUMCON,ioos:station:LUMCON:103:1,2009-08-04T11:00:00Z,30.1889,-90.1683,27.2,11111222 
LUMCON,ioos:station:LUMCON:103:1,2009-08-04T13:00:00Z,30.1889,-90.1683,27.9,11111222 
LUMCON,ioos:station:LUMCON:103:1,2009-08-04T15:00:00Z,30.1889,-90.1683,29.3,11111222 
LUMCON,ioos:station:LUMCON:103:1,2009-08-04T16:00:00Z,30.1889,-90.1683,30.3,11111222 
LUMCON,ioos:station:LUMCON:103:1,2009-08-04T20:00:00Z,30.1889,-90.1683,31.0,11111222 
LUMCON,ioos:station:LUMCON:103:1,2009-08-04T21:00:00Z,30.1889,-90.1683,31.6,11111222 
LUMCON,ioos:station:LUMCON:103:1,2009-08-04T22:00:00Z,30.1889,-90.1683,32.3,11111222 
LUMCON,ioos:station:LUMCON:103:1,2009-08-04T23:00:00Z,30.1889,-90.1683,32.7,11111222 
LUMCON,ioos:station:LUMCON:103:1,2009-08-05T00:00:00Z,30.1889,-90.1683,32.7,11111222 
LUMCON,ioos:station:LUMCON:103:1,2009-08-05T01:00:00Z,30.1889,-90.1683,31.1,11111222 
LUMCON,ioos:station:LUMCON:103:1,2009-08-05T02:00:00Z,30.1889,-90.1683,31.0,11111222 
LUMCON,ioos:station:LUMCON:103:1,2009-08-05T03:00:00Z,30.1889,-90.1683,30.7,11111222 
LUMCON,ioos:station:LUMCON:103:1,2009-08-05T04:00:00Z,30.1889,-90.1683,29.6,11111222 
LUMCON,ioos:station:LUMCON:103:1,2009-08-05T05:00:00Z,30.1889,-90.1683,28.5,11111222 
LUMCON,ioos:station:LUMCON:103:1,2009-08-05T06:00:00Z,30.1889,-90.1683,27.5,11111222 
LUMCON,ioos:station:LUMCON:103:1,2009-08-05T07:00:00Z,30.1889,-90.1683,28.1,11111222 
LUMCON,ioos:station:LUMCON:103:1,2009-08-05T08:00:00Z,30.1889,-90.1683,27.1,11111222 
LUMCON,ioos:station:LUMCON:103:1,2009-08-05T09:00:00Z,30.1889,-90.1683,26.3,11111222 
LUMCON,ioos:station:LUMCON:103:1,2009-08-05T10:00:00Z,30.1889,-90.1683,26.2,11111222 
LUMCON,ioos:station:LUMCON:103:1,2009-08-05T11:00:00Z,30.1889,-90.1683,25.5,11111222 
LUMCON,ioos:station:LUMCON:103:1,2009-08-05T12:00:00Z,30.1889,-90.1683,25.7,11111222 
LUMCON,ioos:station:LUMCON:103:1,2009-08-05T13:00:00Z,30.1889,-90.1683,26.2,11111222 
LUMCON,ioos:station:LUMCON:103:1,2009-08-05T14:00:00Z,30.1889,-90.1683,29.0,11111222 
LUMCON,ioos:station:LUMCON:103:1,2009-08-05T15:00:00Z,30.1889,-90.1683,29.9,11111222 
LUMCON,ioos:station:LUMCON:103:1,2009-08-05T16:00:00Z,30.1889,-90.1683,30.6,11111222 
LUMCON,ioos:station:LUMCON:103:1,2009-08-20T16:00:00Z,30.1889,-90.1683,30.2,11111222 
LUMCON,ioos:station:LUMCON:103:1,2009-08-20T17:00:00Z,30.1889,-90.1683,29.5,11111222 
LUMCON,ioos:station:LUMCON:103:1,2009-08-20T18:00:00Z,30.1889,-90.1683,30.0,11111222 
LUMCON,ioos:station:LUMCON:103:1,2009-08-20T19:00:00Z,30.1889,-90.1683,28.9,11111222 
LUMCON,ioos:station:LUMCON:103:1,2009-08-20T20:00:00Z,30.1889,-90.1683,29.2,11111222 
LUMCON,ioos:station:LUMCON:103:1,2009-08-20T21:00:00Z,30.1889,-90.1683,29.6,11111222 
LUMCON,ioos:station:LUMCON:103:1,2009-08-20T22:00:00Z,30.1889,-90.1683,29.8,11111222 
LUMCON,ioos:station:LUMCON:103:1,2009-08-20T23:00:00Z,30.1889,-90.1683,29.8,11111222 
LUMCON,ioos:station:LUMCON:103:1,2009-08-21T00:00:00Z,30.1889,-90.1683,29.8,11111222 
LUMCON,ioos:station:LUMCON:103:1,2009-08-21T01:00:00Z,30.1889,-90.1683,29.0,11111222 
LUMCON,ioos:station:LUMCON:103:1,2009-08-21T02:00:00Z,30.1889,-90.1683,28.8,11111222 
LUMCON,ioos:station:LUMCON:103:1,2009-08-21T03:00:00Z,30.1889,-90.1683,28.7,11111222 
LUMCON,ioos:station:LUMCON:103:1,2009-08-21T04:00:00Z,30.1889,-90.1683,28.2,11111222 
LUMCON,ioos:station:LUMCON:103:1,2009-08-21T05:00:00Z,30.1889,-90.1683,28.2,11111222 
LUMCON,ioos:station:LUMCON:103:1,2009-08-21T06:00:00Z,30.1889,-90.1683,28.3,11111222 
LUMCON,ioos:station:LUMCON:103:1,2009-08-21T07:00:00Z,30.1889,-90.1683,28.0,11111222 
LUMCON,ioos:station:LUMCON:103:1,2009-08-21T08:00:00Z,30.1889,-90.1683,28.3,11111222 
LUMCON,ioos:station:LUMCON:103:1,2009-08-21T09:00:00Z,30.1889,-90.1683,27.2,11111222 
LUMCON,ioos:station:LUMCON:103:1,2009-08-21T10:00:00Z,30.1889,-90.1683,27.2,11111222 
LUMCON,ioos:station:LUMCON:103:1,2009-08-21T11:00:00Z,30.1889,-90.1683,27.2,11111222 
LUMCON,ioos:station:LUMCON:103:1,2009-08-21T12:00:00Z,30.1889,-90.1683,27.2,11111222 
LUMCON,ioos:station:LUMCON:103:1,2009-08-21T13:00:00Z,30.1889,-90.1683,27.9,11111222 
LUMCON,ioos:station:LUMCON:103:1,2009-08-21T14:00:00Z,30.1889,-90.1683,29.1,11111222 
LUMCON,ioos:station:LUMCON:103:1,2009-08-21T15:00:00Z,30.1889,-90.1683,29.1,11111222 
LUMCON,ioos:station:LUMCON:103:1,2009-08-21T16:00:00Z,30.1889,-90.1683,29.3,11111222 
LUMCON,ioos:station:LUMCON:103:1,2009-08-21T17:00:00Z,30.1889,-90.1683,27.9,11111222 
LUMCON,ioos:station:LUMCON:103:1,2009-08-21T18:00:00Z,30.1889,-90.1683,25.4,11111222 
LUMCON,ioos:station:LUMCON:103:1,2009-08-21T19:00:00Z,30.1889,-90.1683,27.2,11111222 
LUMCON,ioos:station:LUMCON:103:1,2009-08-21T20:00:00Z,30.1889,-90.1683,26.4,11111222 
LUMCON,ioos:station:LUMCON:103:1,2009-08-21T21:00:00Z,30.1889,-90.1683,24.7,11111222 
LUMCON,ioos:station:LUMCON:103:1,2009-08-21T22:00:00Z,30.1889,-90.1683,25.0,11111222 
LUMCON,ioos:station:LUMCON:103:1,2009-08-21T23:00:00Z,30.1889,-90.1683,25.2,11111222 
LUMCON,ioos:station:LUMCON:103:1,2009-08-22T00:00:00Z,30.1889,-90.1683,25.7,11111222 
LUMCON,ioos:station:LUMCON:103:1,2009-08-22T01:00:00Z,30.1889,-90.1683,26.0,11111222 
LUMCON,ioos:station:LUMCON:103:1,2009-08-22T02:00:00Z,30.1889,-90.1683,26.0,11111222 
LUMCON,ioos:station:LUMCON:103:1,2009-08-22T03:00:00Z,30.1889,-90.1683,26.7,11111222 
LUMCON,ioos:station:LUMCON:103:1,2009-08-22T04:00:00Z,30.1889,-90.1683,26.7,11111222 
LUMCON,ioos:station:LUMCON:103:1,2009-08-22T05:00:00Z,30.1889,-90.1683,26.6,11111222 
LUMCON,ioos:station:LUMCON:103:1,2009-08-22T06:00:00Z,30.1889,-90.1683,26.6,11111222 
LUMCON,ioos:station:LUMCON:103:1,2009-08-22T07:00:00Z,30.1889,-90.1683,26.4,11111222 
LUMCON,ioos:station:LUMCON:103:1,2009-08-22T08:00:00Z,30.1889,-90.1683,25.9,11111222 
LUMCON,ioos:station:LUMCON:103:1,2009-08-22T09:00:00Z,30.1889,-90.1683,25.6,11111222 
LUMCON,ioos:station:LUMCON:103:1,2009-08-22T10:00:00Z,30.1889,-90.1683,24.8,11111222 
LUMCON,ioos:station:LUMCON:103:1,2009-08-22T11:00:00Z,30.1889,-90.1683,24.7,11111222 
LUMCON,ioos:station:LUMCON:103:1,2009-08-22T12:00:00Z,30.1889,-90.1683,25.3,11111222 
LUMCON,ioos:station:LUMCON:103:1,2009-08-22T13:00:00Z,30.1889,-90.1683,26.1,11111222 
LUMCON,ioos:station:LUMCON:103:1,2009-08-22T14:00:00Z,30.1889,-90.1683,24.7,11111222 
LUMCON,ioos:station:LUMCON:103:1,2009-08-22T15:00:00Z,30.1889,-90.1683,27.2,11111222 
LUMCON,ioos:station:LUMCON:103:1,2009-08-22T16:00:00Z,30.1889,-90.1683,28.6,11111222 
LUMCON,ioos:station:LUMCON:103:1,2009-08-22T17:00:00Z,30.1889,-90.1683,29.2,11111222 
LUMCON,ioos:station:LUMCON:103:1,2009-08-22T18:00:00Z,30.1889,-90.1683,29.7,11111222 
LUMCON,ioos:station:LUMCON:103:1,2009-08-22T19:00:00Z,30.1889,-90.1683,30.2,11111222 
LUMCON,ioos:station:LUMCON:103:1,2009-08-22T20:00:00Z,30.1889,-90.1683,30.8,11111222 
LUMCON,ioos:station:LUMCON:103:1,2009-08-22T21:00:00Z,30.1889,-90.1683,30.9,11111222 
LUMCON,ioos:station:LUMCON:103:1,2009-08-22T22:00:00Z,30.1889,-90.1683,31.1,11111222 
LUMCON,ioos:station:LUMCON:103:1,2009-08-22T23:00:00Z,30.1889,-90.1683,31.0,11111222 
LUMCON,ioos:station:LUMCON:103:1,2009-08-23T00:00:00Z,30.1889,-90.1683,30.2,11111222 
LUMCON,ioos:station:LUMCON:103:1,2009-08-23T01:00:00Z,30.1889,-90.1683,29.5,11111222 
LUMCON,ioos:station:LUMCON:103:1,2009-08-23T02:00:00Z,30.1889,-90.1683,28.5,11111222 
LUMCON,ioos:station:LUMCON:103:1,2009-08-23T03:00:00Z,30.1889,-90.1683,28.0,11111222 
LUMCON,ioos:station:LUMCON:103:1,2009-08-23T04:00:00Z,30.1889,-90.1683,27.6,11111222 
LUMCON,ioos:station:LUMCON:103:1,2009-08-23T05:00:00Z,30.1889,-90.1683,27.2,11111222 
LUMCON,ioos:station:LUMCON:103:1,2009-08-23T06:00:00Z,30.1889,-90.1683,26.0,11111222 
LUMCON,ioos:station:LUMCON:103:1,2009-08-23T07:00:00Z,30.1889,-90.1683,25.8,11111222 
LUMCON,ioos:station:LUMCON:103:1,2009-08-23T08:00:00Z,30.1889,-90.1683,24.8,11111222 
LUMCON,ioos:station:LUMCON:103:1,2009-08-23T09:00:00Z,30.1889,-90.1683,24.2,11111222 
LUMCON,ioos:station:LUMCON:103:1,2009-08-23T10:00:00Z,30.1889,-90.1683,23.6,11111222 
LUMCON,ioos:station:LUMCON:103:1,2009-08-23T11:00:00Z,30.1889,-90.1683,22.8,11111222 
LUMCON,ioos:station:LUMCON:103:1,2009-08-23T12:00:00Z,30.1889,-90.1683,22.3,11111222 
LUMCON,ioos:station:LUMCON:103:1,2009-08-23T13:00:00Z,30.1889,-90.1683,22.8,11111222 
LUMCON,ioos:station:LUMCON:103:1,2009-08-23T14:00:00Z,30.1889,-90.1683,24.1,11111222 
LUMCON,ioos:station:LUMCON:103:1,2009-08-23T15:00:00Z,30.1889,-90.1683,25.1,11111222 
LUMCON,ioos:station:LUMCON:103:1,2009-08-23T16:00:00Z,30.1889,-90.1683,25.9,11111222 
LUMCON,ioos:station:LUMCON:103:1,2009-08-23T17:00:00Z,30.1889,-90.1683,26.7,11111222 
LUMCON,ioos:station:LUMCON:103:1,2009-08-23T18:00:00Z,30.1889,-90.1683,27.5,11111222 
LUMCON,ioos:station:LUMCON:103:1,2009-08-23T19:00:00Z,30.1889,-90.1683,28.0,11111222 
LUMCON,ioos:station:LUMCON:103:1,2009-08-23T20:00:00Z,30.1889,-90.1683,28.3,11111222 
LUMCON,ioos:station:LUMCON:103:1,2009-08-23T21:00:00Z,30.1889,-90.1683,28.8,11111222 
LUMCON,ioos:station:LUMCON:103:1,2009-08-23T22:00:00Z,30.1889,-90.1683,29.0,11111222 
LUMCON,ioos:station:LUMCON:103:1,2009-08-23T23:00:00Z,30.1889,-90.1683,28.8,11111222 
LUMCON,ioos:station:LUMCON:103:1,2009-08-24T00:00:00Z,30.1889,-90.1683,28.5,11111222 
LUMCON,ioos:station:LUMCON:103:1,2009-08-24T01:00:00Z,30.1889,-90.1683,27.3,11111222 
LUMCON,ioos:station:LUMCON:103:1,2009-08-24T02:00:00Z,30.1889,-90.1683,26.7,11111222 
LUMCON,ioos:station:LUMCON:103:1,2009-08-24T03:00:00Z,30.1889,-90.1683,26.4,11111222 
LUMCON,ioos:station:LUMCON:103:1,2009-08-24T04:00:00Z,30.1889,-90.1683,25.4,11111222 
LUMCON,ioos:station:LUMCON:103:1,2009-08-24T05:00:00Z,30.1889,-90.1683,25.6,11111222 
LUMCON,ioos:station:LUMCON:103:1,2009-08-24T06:00:00Z,30.1889,-90.1683,25.9,11111222 
LUMCON,ioos:station:LUMCON:103:1,2009-08-24T07:00:00Z,30.1889,-90.1683,25.5,11111222 
LUMCON,ioos:station:LUMCON:103:1,2009-08-24T08:00:00Z,30.1889,-90.1683,25.4,11111222 
LUMCON,ioos:station:LUMCON:103:1,2009-08-24T09:00:00Z,30.1889,-90.1683,25.1,11111222 
LUMCON,ioos:station:LUMCON:103:1,2009-08-24T10:00:00Z,30.1889,-90.1683,24.4,11111222 
LUMCON,ioos:station:LUMCON:103:1,2009-08-24T11:00:00Z,30.1889,-90.1683,23.4,11111222 
LUMCON,ioos:station:LUMCON:103:1,2009-08-24T12:00:00Z,30.1889,-90.1683,22.7,11111222 
LUMCON,ioos:station:LUMCON:103:1,2009-08-24T13:00:00Z,30.1889,-90.1683,23.7,11111222 
LUMCON,ioos:station:LUMCON:103:1,2009-08-24T14:00:00Z,30.1889,-90.1683,24.8,11111222 
LUMCON,ioos:station:LUMCON:103:1,2009-08-24T15:00:00Z,30.1889,-90.1683,25.3,11111222 
LUMCON,ioos:station:LUMCON:103:1,2009-08-24T16:00:00Z,30.1889,-90.1683,24.6,11111222 
LUMCON,ioos:station:LUMCON:103:1,2009-08-24T17:00:00Z,30.1889,-90.1683,25.5,11111222 
LUMCON,ioos:station:LUMCON:103:1,2009-08-24T18:00:00Z,30.1889,-90.1683,26.7,11111222 
LUMCON,ioos:station:LUMCON:103:1,2009-08-24T20:00:00Z,30.1889,-90.1683,26.8,11111222 
LUMCON,ioos:station:LUMCON:103:1,2009-08-24T21:00:00Z,30.1889,-90.1683,27.4,11111222 
LUMCON,ioos:station:LUMCON:103:1,2009-08-24T22:00:00Z,30.1889,-90.1683,28.7,11111222 
LUMCON,ioos:station:LUMCON:103:1,2009-08-24T23:00:00Z,30.1889,-90.1683,28.9,11111222 
LUMCON,ioos:station:LUMCON:103:1,2009-08-25T00:00:00Z,30.1889,-90.1683,28.2,11111222 
LUMCON,ioos:station:LUMCON:103:1,2009-08-25T01:00:00Z,30.1889,-90.1683,27.4,11111222 
LUMCON,ioos:station:LUMCON:103:1,2009-08-25T02:00:00Z,30.1889,-90.1683,27.6,11111222 
LUMCON,ioos:station:LUMCON:103:1,2009-08-25T03:00:00Z,30.1889,-90.1683,27.1,11111222 
LUMCON,ioos:station:LUMCON:103:1,2009-08-25T04:00:00Z,30.1889,-90.1683,26.4,11111222 
LUMCON,ioos:station:LUMCON:103:1,2009-08-25T05:00:00Z,30.1889,-90.1683,25.6,11111222 
LUMCON,ioos:station:LUMCON:103:1,2009-08-25T06:00:00Z,30.1889,-90.1683,25.4,11111222 
LUMCON,ioos:station:LUMCON:103:1,2009-08-25T07:00:00Z,30.1889,-90.1683,25.1,11111222 
LUMCON,ioos:station:LUMCON:103:1,2009-08-25T08:00:00Z,30.1889,-90.1683,24.5,11111222 
LUMCON,ioos:station:LUMCON:103:1,2009-08-25T09:00:00Z,30.1889,-90.1683,23.2,11111222 
LUMCON,ioos:station:LUMCON:103:1,2009-08-25T10:00:00Z,30.1889,-90.1683,22.3,11111222 
LUMCON,ioos:station:LUMCON:103:1,2009-08-25T11:00:00Z,30.1889,-90.1683,21.8,11111222 
LUMCON,ioos:station:LUMCON:103:1,2009-08-25T12:00:00Z,30.1889,-90.1683,21.3,11111222 
LUMCON,ioos:station:LUMCON:103:1,2009-08-25T13:00:00Z,30.1889,-90.1683,22.7,11111222 
LUMCON,ioos:station:LUMCON:103:1,2009-08-25T14:00:00Z,30.1889,-90.1683,23.3,11111222 
LUMCON,ioos:station:LUMCON:103:1,2009-08-25T15:00:00Z,30.1889,-90.1683,24.2,11111222 
LUMCON,ioos:station:LUMCON:103:1,2009-08-25T17:00:00Z,30.1889,-90.1683,25.6,11111222 
LUMCON,ioos:station:LUMCON:103:1,2009-08-25T18:00:00Z,30.1889,-90.1683,26.0,11111222 
LUMCON,ioos:station:LUMCON:103:1,2009-08-25T19:00:00Z,30.1889,-90.1683,26.7,11111222 
LUMCON,ioos:station:LUMCON:103:1,2009-08-25T20:00:00Z,30.1889,-90.1683,27.2,11111222 
LUMCON,ioos:station:LUMCON:103:1,2009-08-26T19:00:00Z,30.1889,-90.1683,27.9,11111222 
LUMCON,ioos:station:LUMCON:103:1,2009-08-26T20:00:00Z,30.1889,-90.1683,28.2,11111222 
LUMCON,ioos:station:LUMCON:103:1,2009-08-26T21:00:00Z,30.1889,-90.1683,28.5,11111222 
LUMCON,ioos:station:LUMCON:103:1,2009-08-26T22:00:00Z,30.1889,-90.1683,28.8,11111222 
LUMCON,ioos:station:LUMCON:103:1,2009-08-26T23:00:00Z,30.1889,-90.1683,28.9,11111222 
LUMCON,ioos:station:LUMCON:103:1,2009-08-27T00:00:00Z,30.1889,-90.1683,28.6,11111222 
LUMCON,ioos:station:LUMCON:103:1,2009-08-27T01:00:00Z,30.1889,-90.1683,28.2,11111222 
LUMCON,ioos:station:LUMCON:103:1,2009-08-27T02:00:00Z,30.1889,-90.1683,28.1,11111222 
LUMCON,ioos:station:LUMCON:103:1,2009-08-27T03:00:00Z,30.1889,-90.1683,27.9,11111222 
LUMCON,ioos:station:LUMCON:103:1,2009-08-27T04:00:00Z,30.1889,-90.1683,27.7,11111222 
LUMCON,ioos:station:LUMCON:103:1,2009-08-27T05:00:00Z,30.1889,-90.1683,27.7,11111222 
LUMCON,ioos:station:LUMCON:103:1,2009-08-27T06:00:00Z,30.1889,-90.1683,27.5,11111222 
LUMCON,ioos:station:LUMCON:103:1,2009-08-27T07:00:00Z,30.1889,-90.1683,27.3,11111222 
LUMCON,ioos:station:LUMCON:103:1,2009-08-27T08:00:00Z,30.1889,-90.1683,26.1,11111222 
LUMCON,ioos:station:LUMCON:103:1,2009-08-27T09:00:00Z,30.1889,-90.1683,25.9,11111222 
LUMCON,ioos:station:LUMCON:103:1,2009-08-27T10:00:00Z,30.1889,-90.1683,25.1,11111222 
LUMCON,ioos:station:LUMCON:103:1,2009-08-27T11:00:00Z,30.1889,-90.1683,24.8,11111222 
LUMCON,ioos:station:LUMCON:103:1,2009-08-27T12:00:00Z,30.1889,-90.1683,24.7,11111222 
LUMCON,ioos:station:LUMCON:103:1,2009-08-27T13:00:00Z,30.1889,-90.1683,25.3,11111222 
LUMCON,ioos:station:LUMCON:103:1,2009-08-27T14:00:00Z,30.1889,-90.1683,25.9,11111222 
LUMCON,ioos:station:LUMCON:103:1,2009-08-27T15:00:00Z,30.1889,-90.1683,26.7,11111222 
LUMCON,ioos:station:LUMCON:103:1,2009-08-27T16:00:00Z,30.1889,-90.1683,27.5,11111222 
LUMCON,ioos:station:LUMCON:103:1,2009-08-27T17:00:00Z,30.1889,-90.1683,28.1,11111222 
LUMCON,ioos:station:LUMCON:103:1,2009-08-27T18:00:00Z,30.1889,-90.1683,28.4,11111222 
LUMCON,ioos:station:LUMCON:103:1,2009-08-27T19:00:00Z,30.1889,-90.1683,28.8,11111222 
LUMCON,ioos:station:LUMCON:103:1,2009-08-27T20:00:00Z,30.1889,-90.1683,29.1,11111222 
LUMCON,ioos:station:LUMCON:103:1,2009-08-27T21:00:00Z,30.1889,-90.1683,29.4,11111222 
LUMCON,ioos:station:LUMCON:103:1,2009-08-27T22:00:00Z,30.1889,-90.1683,29.7,11111222 
LUMCON,ioos:station:LUMCON:103:1,2009-08-27T23:00:00Z,30.1889,-90.1683,29.3,11111222 
LUMCON,ioos:station:LUMCON:103:1,2009-08-28T00:00:00Z,30.1889,-90.1683,28.8,11111222 
LUMCON,ioos:station:LUMCON:103:1,2009-08-28T01:00:00Z,30.1889,-90.1683,28.4,11111222 
LUMCON,ioos:station:LUMCON:103:1,2009-08-28T02:00:00Z,30.1889,-90.1683,28.0,11111222 
LUMCON,ioos:station:LUMCON:103:1,2009-08-28T03:00:00Z,30.1889,-90.1683,27.6,11111222 
LUMCON,ioos:station:LUMCON:103:1,2009-08-28T04:00:00Z,30.1889,-90.1683,27.5,11111222 
LUMCON,ioos:station:LUMCON:103:1,2009-08-28T05:00:00Z,30.1889,-90.1683,27.3,11111222 
LUMCON,ioos:station:LUMCON:103:1,2009-08-28T06:00:00Z,30.1889,-90.1683,27.1,11111222 
LUMCON,ioos:station:LUMCON:103:1,2009-08-28T07:00:00Z,30.1889,-90.1683,26.8,11111222 
LUMCON,ioos:station:LUMCON:103:1,2009-08-28T08:00:00Z,30.1889,-90.1683,26.6,11111222 
LUMCON,ioos:station:LUMCON:103:1,2009-08-28T09:00:00Z,30.1889,-90.1683,26.5,11111222 
LUMCON,ioos:station:LUMCON:103:1,2009-08-28T10:00:00Z,30.1889,-90.1683,25.6,11111222 
LUMCON,ioos:station:LUMCON:103:1,2009-08-28T11:00:00Z,30.1889,-90.1683,25.2,11111222 
LUMCON,ioos:station:LUMCON:103:1,2009-08-28T12:00:00Z,30.1889,-90.1683,25.2,11111222 
LUMCON,ioos:station:LUMCON:103:1,2009-08-28T13:00:00Z,30.1889,-90.1683,26.2,11111222 
LUMCON,ioos:station:LUMCON:103:1,2009-08-28T14:00:00Z,30.1889,-90.1683,27.0,11111222 
LUMCON,ioos:station:LUMCON:103:1,2009-08-28T15:00:00Z,30.1889,-90.1683,27.2,11111222 
LUMCON,ioos:station:LUMCON:103:1,2009-08-28T16:00:00Z,30.1889,-90.1683,27.5,11111222 
LUMCON,ioos:station:LUMCON:103:1,2009-08-28T17:00:00Z,30.1889,-90.1683,28.3,11111222 
LUMCON,ioos:station:LUMCON:103:1,2009-08-28T18:00:00Z,30.1889,-90.1683,28.2,11111222 
LUMCON,ioos:station:LUMCON:103:1,2009-08-28T19:00:00Z,30.1889,-90.1683,28.6,11111222 
LUMCON,ioos:station:LUMCON:103:1,2009-08-28T20:00:00Z,30.1889,-90.1683,29.1,11111222 
LUMCON,ioos:station:LUMCON:103:1,2009-08-28T21:00:00Z,30.1889,-90.1683,29.8,11111222 
LUMCON,ioos:station:LUMCON:103:1,2009-08-28T22:00:00Z,30.1889,-90.1683,30.0,11111222 
LUMCON,ioos:station:LUMCON:103:1,2009-08-28T23:00:00Z,30.1889,-90.1683,29.6,11111222 
LUMCON,ioos:station:LUMCON:103:1,2009-08-29T00:00:00Z,30.1889,-90.1683,29.1,11111222 
LUMCON,ioos:station:LUMCON:103:1,2009-08-29T01:00:00Z,30.1889,-90.1683,28.1,11111222 
LUMCON,ioos:station:LUMCON:103:1,2009-08-29T02:00:00Z,30.1889,-90.1683,27.7,11111222 
LUMCON,ioos:station:LUMCON:103:1,2009-08-29T03:00:00Z,30.1889,-90.1683,27.2,11111222 
LUMCON,ioos:station:LUMCON:103:1,2009-08-29T04:00:00Z,30.1889,-90.1683,26.9,11111222 
LUMCON,ioos:station:LUMCON:103:1,2009-08-29T05:00:00Z,30.1889,-90.1683,26.6,11111222 
LUMCON,ioos:station:LUMCON:103:1,2009-08-29T06:00:00Z,30.1889,-90.1683,26.6,11111222 
LUMCON,ioos:station:LUMCON:103:1,2009-08-29T07:00:00Z,30.1889,-90.1683,26.8,11111222 
LUMCON,ioos:station:LUMCON:103:1,2009-08-29T08:00:00Z,30.1889,-90.1683,26.7,11111222 
LUMCON,ioos:station:LUMCON:103:1,2009-08-29T09:00:00Z,30.1889,-90.1683,26.9,11111222 
LUMCON,ioos:station:LUMCON:103:1,2009-08-29T10:00:00Z,30.1889,-90.1683,27.0,11111222 
LUMCON,ioos:station:LUMCON:103:1,2009-08-29T11:00:00Z,30.1889,-90.1683,27.1,11111222 
LUMCON,ioos:station:LUMCON:103:1,2009-08-29T12:00:00Z,30.1889,-90.1683,27.0,11111222 
LUMCON,ioos:station:LUMCON:103:1,2009-08-29T13:00:00Z,30.1889,-90.1683,27.3,11111222 
LUMCON,ioos:station:LUMCON:103:1,2009-08-29T14:00:00Z,30.1889,-90.1683,27.9,11111222 
LUMCON,ioos:station:LUMCON:103:1,2009-08-29T15:00:00Z,30.1889,-90.1683,28.4,11111222 
LUMCON,ioos:station:LUMCON:103:1,2009-08-29T16:00:00Z,30.1889,-90.1683,28.4,11111222 
LUMCON,ioos:station:LUMCON:103:1,2009-08-29T17:00:00Z,30.1889,-90.1683,28.8,11111222 
LUMCON,ioos:station:LUMCON:103:1,2009-08-29T18:00:00Z,30.1889,-90.1683,29.0,11111222 
LUMCON,ioos:station:LUMCON:103:1,2009-08-29T19:00:00Z,30.1889,-90.1683,28.8,11111222 
LUMCON,ioos:station:LUMCON:103:1,2009-08-29T20:00:00Z,30.1889,-90.1683,28.8,11111222 
LUMCON,ioos:station:LUMCON:103:1,2009-08-29T22:00:00Z,30.1889,-90.1683,29.3,11111222 
LUMCON,ioos:station:LUMCON:103:1,2009-08-29T23:00:00Z,30.1889,-90.1683,29.5,11111222 
LUMCON,ioos:station:LUMCON:103:1,2009-08-30T00:00:00Z,30.1889,-90.1683,29.2,11111222 
LUMCON,ioos:station:LUMCON:103:1,2009-08-30T01:00:00Z,30.1889,-90.1683,29.0,11111222 
LUMCON,ioos:station:LUMCON:103:1,2009-08-30T02:00:00Z,30.1889,-90.1683,29.0,11111222 
LUMCON,ioos:station:LUMCON:103:1,2009-08-30T03:00:00Z,30.1889,-90.1683,28.9,11111222 
LUMCON,ioos:station:LUMCON:103:1,2009-08-30T04:00:00Z,30.1889,-90.1683,28.8,11111222 
LUMCON,ioos:station:LUMCON:103:1,2009-08-30T05:00:00Z,30.1889,-90.1683,28.7,11111222 
LUMCON,ioos:station:LUMCON:103:1,2009-08-30T06:00:00Z,30.1889,-90.1683,28.2,11111222 
LUMCON,ioos:station:LUMCON:103:1,2009-08-30T07:00:00Z,30.1889,-90.1683,28.1,11111222 
LUMCON,ioos:station:LUMCON:103:1,2009-08-30T08:00:00Z,30.1889,-90.1683,27.3,11111222 
LUMCON,ioos:station:LUMCON:103:1,2009-08-30T09:00:00Z,30.1889,-90.1683,26.4,11111222 
LUMCON,ioos:station:LUMCON:103:1,2009-08-30T10:00:00Z,30.1889,-90.1683,26.5,11111222 
LUMCON,ioos:station:LUMCON:103:1,2009-08-30T11:00:00Z,30.1889,-90.1683,26.4,11111222 
LUMCON,ioos:station:LUMCON:103:1,2009-08-30T12:00:00Z,30.1889,-90.1683,27.2,11111222 
LUMCON,ioos:station:LUMCON:103:1,2009-08-30T13:00:00Z,30.1889,-90.1683,27.1,11111222 
LUMCON,ioos:station:LUMCON:103:1,2009-08-30T14:00:00Z,30.1889,-90.1683,27.7,11111222 
LUMCON,ioos:station:LUMCON:103:1,2009-08-30T15:00:00Z,30.1889,-90.1683,28.1,11111222 
LUMCON,ioos:station:LUMCON:103:1,2009-08-30T16:00:00Z,30.1889,-90.1683,28.1,11111222 
LUMCON,ioos:station:LUMCON:103:1,2009-08-30T17:00:00Z,30.1889,-90.1683,27.8,11111222 
LUMCON,ioos:station:LUMCON:103:1,2009-08-30T18:00:00Z,30.1889,-90.1683,27.4,11111222 
LUMCON,ioos:station:LUMCON:103:1,2009-08-30T19:00:00Z,30.1889,-90.1683,27.8,11111222 
LUMCON,ioos:station:LUMCON:103:1,2009-08-30T20:00:00Z,30.1889,-90.1683,29.1,11111222 
LUMCON,ioos:station:LUMCON:103:1,2009-08-30T21:00:00Z,30.1889,-90.1683,29.8,11111222 
LUMCON,ioos:station:LUMCON:103:1,2009-08-30T22:00:00Z,30.1889,-90.1683,29.7,11111222 
LUMCON,ioos:station:LUMCON:103:1,2009-08-30T23:00:00Z,30.1889,-90.1683,29.6,11111222 
LUMCON,ioos:station:LUMCON:103:1,2009-08-31T00:00:00Z,30.1889,-90.1683,29.1,11111222 
LUMCON,ioos:station:LUMCON:103:1,2009-08-31T01:00:00Z,30.1889,-90.1683,28.1,11111222 
LUMCON,ioos:station:LUMCON:103:1,2009-08-31T02:00:00Z,30.1889,-90.1683,27.4,11111222 
LUMCON,ioos:station:LUMCON:103:1,2009-08-31T03:00:00Z,30.1889,-90.1683,26.3,11111222 
LUMCON,ioos:station:LUMCON:103:1,2009-08-31T04:00:00Z,30.1889,-90.1683,26.1,11111222 